Location: Unspecified
(0.0000°N, 0.0000°E)
Time: 16:24:57
(UTC+00:00)

Courier 1B - Pass Details

Date: 19 November 2019
Orbit: 963 x 1209 km, 28.3° (Epoch: 12 December)

Event Time Altitude Azimuth Distance (km) Brightness Sun altitude
Rises 11:53:23 0° 319° (NW) 3,625 10.3 70.4°
Reaches altitude 10° 11:56:24 10° 331° (NNW) 2,688 9.8 70.4°
Maximum altitude 12:01:50 28° 29° (NNE) 1,742 9.0 70.1°
Drops below altitude 10° 12:07:26 10° 86° (E) 2,778 10.0 69.8°
Sets 12:10:35 0° 97° (E) 3,768 10.5 69.6°
